Location: ????? ????
(37.9717°N, 23.4051°E)
Time: 13:31:50
(UTC+00:00)

Atlas Centaur 2 - Pass Details

Date: 18 April 2024
Orbit: 458 x 1278 km, 30.4° (Epoch: 17 May)

Event Time Altitude Azimuth Distance (km) Brightness Sun altitude
Rises 19:31:49 0° 253° (WSW) 3,235 5.7 -26.2°
Reaches altitude 10° 19:34:45 10° 243° (WSW) 2,156 4.6 -26.7°
Enters shadow 19:36:36 19° 230° (SW) 1,537 3.6 -26.9°
